Location: Bryzozowice
(50.3667°N, 18.9667°E)
Time: 06:50:08
(UTC+00:00)

STARLINK-1085 - Pass Details

Date: 24 January 2020
Orbit: 348 x 351 km, 53.0° (Epoch: 25 February)

Event Time Altitude Azimuth Distance (km) Brightness Sun altitude
Rises 16:57:48 0° 276° (W) 2,181 8.1 -14.9°
Reaches altitude 10° 16:59:52 10° 283° (WNW) 1,336 6.6 -15.3°
Maximum altitude 17:02:46 47° 359° (N) 482 3.2 -15.7°
Enters shadow 17:03:22 39° 39° (NE) 549 3.2 -15.8°
